Home   Weather   Liberia   Past weeks
Flag for Costa Rica

Past Weather in Liberia, Costa Rica — Yesterday and Last 2 Weeks

Now
82 °F

Clear.


Feels Like: 83 °F
Forecast: 94 / 74 °F
Wind: 16 mph from East

Location: Liberia/Tomas Guard

Current Time: Mar 24, 2019 at 10:14:48 pm

Latest Report: Mar 24, 2019 at 9:00 pm


Visibility: 10 mi

Pressure: 29.86 "Hg

Humidity: 48%

Dew Point: 61 °F

Location of LiberiaLocation

Past Weather in Liberia — Graph

°F

Liberia Temperature Yesterday

Maximum temperature yesterday: 93 °F (at 2:00 pm)
Minimum temperature yesterday: 72 °F (at 6:00 am)
Average temperature yesterday: 86 °F

High & Low Weather Summary for the Past Weeks

 TemperatureHumidityPressure
High97 °F (Mar 11, 1:00 pm)88% (Mar 15, 6:02 am)29.93 "Hg (Mar 15, 6:02 am)
Low68 °F (Mar 15, 6:02 am)26% (Mar 22, 9:00 pm)29.70 "Hg (Mar 13, 4:00 pm)
Average86 °F47%29.82 "Hg
* Reported Mar 9 9:00 pm — Mar 24 9:00 pm, Liberia. Weather by CustomWeather, © 2019

Note: Actual official high and low records may vary slightly from our data, if they occured in-between our weather recording intervals... More about our weather records

Advertising

Liberia Weather History for the Previous 24 Hours

Scroll right to see more
 ConditionsComfort  
Time TempWeatherWind HumidityBarometerVisibility
9:00 pm
Sun, Mar 24
82 °FClear.16 mph48%29.86 "Hg10 mi
8:00 pm82 °FClear.18 mph51%29.85 "Hg10 mi
7:00 pm84 °FClear.17 mph48%29.83 "Hg10 mi
5:00 pm90 °FSunny.20 mph43%29.79 "Hg10 mi
4:00 pm91 °FSunny.18 mph41%29.78 "Hg10 mi
3:00 pm95 °FSunny.17 mph34%29.79 "Hg10 mi
2:00 pm93 °FSunny.16 mph36%29.81 "Hg10 mi
1:00 pm95 °FSunny.16 mph34%29.85 "Hg10 mi
12:00 pm91 °FSunny.16 mph38%29.88 "Hg10 mi
11:00 am91 °FSunny.18 mph38%29.90 "Hg10 mi
9:00 am88 °FSunny.12 mph40%29.92 "Hg10 mi
8:00 am84 °FSunny.7 mph45%29.92 "Hg10 mi
7:00 am81 °FSunny.3 mph51%29.91 "Hg10 mi
6:00 am72 °FSunny.2 mph65%29.88 "Hg10 mi
12:00 am81 °FClear.15 mph39%29.90 "Hg10 mi
11:00 pm
Sat, Mar 23
81 °FClear.14 mph42%29.91 "Hg10 mi
10:00 pm81 °FClear.17 mph54%29.91 "Hg10 mi
Weather by CustomWeather, © 2019

See weather overview